| time (UTC) | temp F | wind direction | speed knots | gust knots | rain 1hr in | rain 24hr in | rain mn in | humidity % | barometer mb |
| 20260505201042 | 86 | 23 | 0.0 | 0.0 | 0.00 | 0.00 | 0.00 | 67 | 1002.3 |
| 20260505200022 | 86 | 23 | 0.0 | 0.0 | 0.00 | 0.00 | 0.00 | 66 | 1002.2 |
| 20260505195511 | 87 | 23 | 0.0 | 0.0 | 0.00 | 0.00 | 0.00 | 65 | 1002.3 |
| 20260505195001 | 87 | 23 | 0.0 | 0.0 | 0.00 | 0.00 | 0.00 | 66 | 1002.4 |
| 20260505194451 | 87 | 23 | 0.0 | 0.0 | 0.00 | 0.00 | 0.00 | 64 | 1002.1 |
| 20260505193942 | 87 | 68 | 0.0 | 0.0 | 0.00 | 0.00 | 0.00 | 65 | 1002.5 |
| 20260505192920 | 87 | 23 | 0.0 | 0.0 | 0.00 | 0.00 | 0.00 | 66 | 1002.4 |
| 20260505192411 | 87 | 23 | 0.0 | 0.0 | 0.00 | 0.00 | 0.00 | 63 | 1002.3 |
| 20260505191901 | 87 | 23 | 0.0 | 0.0 | 0.00 | 0.00 | 0.00 | 64 | 1002.3 |
| 20260505191350 | 87 | 45 | 0.0 | 0.0 | 0.00 | 0.00 | 0.00 | 64 | 1002.4 |
| 20260505190841 | 87 | 0 | 0.0 | 0.0 | 0.00 | 0.00 | 0.00 | 63 | 1002.3 |
| 20260505185820 | 87 | 23 | 0.0 | 0.0 | 0.00 | 0.00 | 0.00 | 63 | 1002.3 |
| 20260505184801 | 87 | 0 | 0.0 | 0.0 | 0.00 | 0.00 | 0.00 | 62 | 1002.5 |
| 20260505184256 | 87 | 338 | 0.0 | 0.0 | 0.00 | 0.00 | 0.00 | 60 | 1002.4 |
| 20260505183740 | 88 | 23 | 0.0 | 0.0 | 0.00 | 0.00 | 0.00 | 61 | 1002.4 |
| 20260505182720 | 88 | 23 | 0.0 | 0.0 | 0.00 | 0.00 | 0.00 | 60 | 1002.4 |
| 20260505182209 | 89 | 23 | 0.0 | 0.0 | 0.00 | 0.00 | 0.00 | 60 | 1002.4 |
| 20260505181700 | 88 | 68 | 0.0 | 0.0 | 0.00 | 0.00 | 0.00 | 61 | 1002.3 |
| 20260505181149 | 88 | 0 | 0.0 | 0.0 | 0.00 | 0.00 | 0.00 | 60 | 1002.4 |
| 20260505180639 | 88 | 0 | 0.0 | 0.0 | 0.00 | 0.00 | 0.00 | 62 | 1002.5 |
| 20260505180130 | 88 | 23 | 0.0 | 0.0 | 0.00 | 0.00 | 0.00 | 62 | 1002.5 |
| 20260505175619 | 88 | 23 | 0.0 | 0.0 | 0.00 | 0.00 | 0.00 | 60 | 1002.5 |
| 20260505175109 | 88 | 23 | 0.0 | 0.0 | 0.00 | 0.00 | 0.00 | 63 | 1002.7 |
| 20260505174559 | 88 | 23 | 0.0 | 0.0 | 0.00 | 0.00 | 0.00 | 62 | 1002.6 |
| 20260505173029 | 87 | 315 | 0.0 | 0.0 | 0.00 | 0.00 | 0.00 | 62 | 1002.6 |
| 20260505172518 | 87 | 293 | 0.0 | 0.0 | 0.00 | 0.00 | 0.00 | 61 | 1002.7 |
| 20260505172008 | 87 | 23 | 0.0 | 0.0 | 0.00 | 0.00 | 0.00 | 61 | 1002.9 |
| 20260505171457 | 88 | 338 | 0.0 | 0.0 | 0.00 | 0.00 | 0.00 | 63 | 1002.9 |
| 20260505170948 | 87 | 23 | 0.0 | 0.0 | 0.00 | 0.00 | 0.00 | 63 | 1003.1 |
| 20260505170438 | 87 | 0 | 0.0 | 0.0 | 0.00 | 0.00 | 0.00 | 63 | 1003.3 |
| 20260505165928 | 87 | 23 | 0.0 | 0.0 | 0.00 | 0.00 | 0.00 | 62 | 1003.1 |
| 20260505165418 | 87 | 338 | 0.0 | 0.0 | 0.00 | 0.00 | 0.00 | 64 | 1003.3 |
| 20260505164907 | 87 | 23 | 0.0 | 0.0 | 0.00 | 0.00 | 0.00 | 64 | 1003.4 |
| 20260505164358 | 87 | 0 | 0.0 | 0.0 | 0.00 | 0.00 | 0.00 | 66 | 1003.5 |
| 20260505163847 | 87 | 23 | 0.0 | 0.0 | 0.00 | 0.00 | 0.00 | 64 | 1003.4 |
| 20260505163338 | 87 | 0 | 0.0 | 0.0 | 0.00 | 0.00 | 0.00 | 65 | 1003.4 |
| 20260505162827 | 87 | 0 | 0.0 | 0.0 | 0.00 | 0.00 | 0.00 | 65 | 1003.7 |
| 20260505162317 | 87 | 45 | 0.0 | 0.0 | 0.00 | 0.00 | 0.00 | 65 | 1003.6 |
| 20260505161807 | 87 | 23 | 0.0 | 0.0 | 0.00 | 0.00 | 0.00 | 65 | 1003.6 |
| 20260505161257 | 87 | 0 | 0.0 | 0.0 | 0.00 | 0.00 | 0.00 | 66 | 1003.6 |
| 20260505160746 | 86 | 23 | 0.0 | 0.0 | 0.00 | 0.00 | 0.00 | 65 | 1003.8 |
| 20260505160236 | 86 | 0 | 0.0 | 0.0 | 0.00 | 0.00 | 0.00 | 66 | 1004.0 |
| 20260505153136 | 85 | 0 | 0.0 | 0.0 | 0.00 | 0.00 | 0.00 | 67 | 1004.3 |
| 20260505152626 | 85 | 23 | 0.0 | 0.0 | 0.00 | 0.00 | 0.00 | 66 | 1004.3 |
| 20260505152115 | 85 | 0 | 0.0 | 0.0 | 0.00 | 0.00 | 0.00 | 67 | 1004.4 |
| 20260505151605 | 85 | 23 | 0.0 | 0.0 | 0.00 | 0.00 | 0.00 | 69 | 1004.6 |
| 20260505151056 | 85 | 23 | 0.0 | 0.0 | 0.00 | 0.00 | 0.00 | 69 | 1004.5 |
| 20260505150546 | 84 | 23 | 0.0 | 0.0 | 0.00 | 0.00 | 0.00 | 69 | 1004.5 |
| 20260505140344 | 82 | 23 | 0.0 | 0.0 | 0.00 | 0.00 | 0.00 | 72 | 1004.8 |
| 20260505130143 | 80 | 0 | 0.0 | 0.0 | 0.00 | 0.01 | 0.00 | 76 | 1004.7 |
| 20260505124612 | 78 | 23 | 0.0 | 0.0 | 0.00 | 0.07 | 0.00 | 79 | 1004.3 |
| 20260505124102 | 78 | 23 | 0.0 | 0.0 | 0.00 | 0.07 | 0.00 | 79 | 1004.5 |
| 20260505123552 | 78 | 23 | 0.0 | 0.0 | 0.00 | 0.07 | 0.00 | 80 | 1004.2 |
| 20260505123042 | 77 | 23 | 0.0 | 0.0 | 0.00 | 0.07 | 0.00 | 80 | 1004.1 |
| 20260505122531 | 77 | 23 | 0.0 | 0.0 | 0.00 | 0.07 | 0.00 | 80 | 1004.2 |
| 20260505122022 | 77 | 23 | 0.0 | 0.0 | 0.00 | 0.07 | 0.00 | 81 | 1004.3 |
| 20260505121512 | 77 | 23 | 0.0 | 0.0 | 0.00 | 0.07 | 0.00 | 81 | 1004.0 |
| 20260505121001 | 76 | 338 | 0.0 | 0.0 | 0.00 | 0.07 | 0.00 | 82 | 1004.1 |
| 20260505120452 | 76 | 338 | 0.0 | 0.0 | 0.00 | 0.07 | 0.00 | 83 | 1004.0 |
| 20260505115941 | 76 | 315 | 0.0 | 0.0 | 0.00 | 0.07 | 0.00 | 83 | 1004.0 |
| 20260505115431 | 76 | 270 | 0.0 | 0.0 | 0.00 | 0.07 | 0.00 | 81 | 1003.9 |
| 20260505114920 | 77 | 338 | 0.0 | 0.0 | 0.00 | 0.07 | 0.00 | 80 | 1004.0 |
| 20260505114410 | 76 | 338 | 0.0 | 0.0 | 0.00 | 0.07 | 0.00 | 80 | 1004.1 |
| 20260505113901 | 74 | 338 | 0.0 | 0.0 | 0.00 | 0.07 | 0.00 | 84 | 1003.9 |
| 20260505112841 | 72 | 338 | 0.0 | 0.0 | 0.00 | 0.07 | 0.00 | 88 | 1003.8 |
| 20260505112331 | 72 | 338 | 0.0 | 0.0 | 0.00 | 0.07 | 0.00 | 88 | 1003.9 |
| 20260505111820 | 71 | 338 | 0.0 | 0.0 | 0.00 | 0.07 | 0.00 | 89 | 1003.8 |
| 20260505111310 | 69 | 338 | 0.0 | 0.0 | 0.00 | 0.07 | 0.00 | 93 | 1003.8 |
| 20260505110800 | 69 | 338 | 0.0 | 0.0 | 0.00 | 0.07 | 0.00 | 94 | 1003.7 |
| 20260505110250 | 67 | 338 | 0.0 | 0.0 | 0.00 | 0.07 | 0.00 | 96 | 1003.5 |
| 20260505102129 | 66 | 338 | 0.0 | 0.0 | 0.00 | 0.07 | 0.00 | 98 | 1003.3 |
| 20260505101619 | 66 | 338 | 0.0 | 0.0 | 0.00 | 0.07 | 0.00 | 98 | 1003.1 |
| 20260505101108 | 66 | 338 | 0.0 | 0.0 | 0.00 | 0.07 | 0.00 | 98 | 1003.0 |
| 20260505100559 | 66 | 338 | 0.0 | 0.0 | 0.00 | 0.07 | 0.00 | 98 | 1003.0 |
| 20260505100049 | 66 | 338 | 0.0 | 0.0 | 0.00 | 0.07 | 0.00 | 97 | 1002.9 |
| 20260505095538 | 66 | 338 | 0.0 | 0.0 | 0.00 | 0.07 | 0.00 | 98 | 1002.8 |
| 20260505095024 | 66 | 338 | 0.0 | 0.0 | 0.00 | 0.07 | 0.00 | 98 | 1002.7 |
| 20260505094518 | 66 | 338 | 0.0 | 0.0 | 0.00 | 0.07 | 0.00 | 98 | 1002.8 |
| 20260505094008 | 66 | 338 | 0.0 | 0.0 | 0.00 | 0.07 | 0.00 | 98 | 1002.7 |
| 20260505093458 | 66 | 338 | 0.0 | 0.0 | 0.00 | 0.07 | 0.00 | 98 | 1002.5 |
| 20260505092437 | 66 | 338 | 0.0 | 0.0 | 0.00 | 0.07 | 0.00 | 97 | 1002.6 |
| 20260505091417 | 67 | 338 | 0.0 | 0.0 | 0.00 | 0.07 | 0.00 | 97 | 1002.5 |
| 20260505090357 | 67 | 338 | 0.0 | 0.0 | 0.00 | 0.07 | 0.00 | 97 | 1002.2 |
| 20260505085847 | 67 | 338 | 0.0 | 0.0 | 0.00 | 0.07 | 0.00 | 97 | 1002.3 |
| 20260505085337 | 67 | 338 | 0.0 | 0.0 | 0.00 | 0.07 | 0.00 | 97 | 1002.2 |
| 20260505084826 | 67 | 338 | 0.0 | 0.0 | 0.00 | 0.07 | 0.00 | 97 | 1002.2 |
| 20260505084317 | 67 | 338 | 0.0 | 0.0 | 0.00 | 0.07 | 0.00 | 97 | 1002.1 |
| 20260505083807 | 67 | 338 | 0.0 | 0.0 | 0.00 | 0.07 | 0.00 | 96 | 1002.1 |
| 20260505083256 | 67 | 338 | 0.0 | 0.0 | 0.00 | 0.07 | 0.00 | 97 | 1002.0 |
| 20260505082746 | 67 | 338 | 0.0 | 0.0 | 0.00 | 0.07 | 0.00 | 97 | 1002.1 |
| 20260505081726 | 67 | 338 | 0.0 | 0.0 | 0.00 | 0.07 | 0.00 | 96 | 1002.1 |
| 20260505081216 | 67 | 338 | 0.0 | 0.0 | 0.00 | 0.07 | 0.00 | 97 | 1002.0 |
| 20260505080706 | 68 | 338 | 0.0 | 0.0 | 0.00 | 0.07 | 0.00 | 97 | 1002.0 |
| 20260505080156 | 68 | 338 | 0.0 | 0.0 | 0.00 | 0.07 | 0.00 | 97 | 1002.0 |
| 20260505075646 | 67 | 338 | 0.0 | 0.0 | 0.00 | 0.07 | 0.00 | 98 | 1001.9 |
| 20260505074626 | 67 | 338 | 0.0 | 0.0 | 0.00 | 0.07 | 0.00 | 98 | 1001.9 |
| 20260505074116 | 67 | 338 | 0.0 | 0.0 | 0.00 | 0.07 | 0.00 | 98 | 1001.9 |
| 20260505073605 | 67 | 338 | 0.0 | 0.0 | 0.00 | 0.07 | 0.00 | 97 | 1001.8 |
| 20260505073055 | 67 | 338 | 0.0 | 0.0 | 0.00 | 0.07 | 0.00 | 97 | 1001.8 |
| 20260505072545 | 67 | 338 | 0.0 | 0.0 | 0.00 | 0.07 | 0.00 | 96 | 1001.9 |
| 20260505072035 | 68 | 338 | 0.0 | 0.0 | 0.00 | 0.07 | 0.00 | 96 | 1002.1 |
| 20260505071525 | 68 | 338 | 0.0 | 0.0 | 0.00 | 0.08 | 0.00 | 96 | 1002.0 |
| 20260505071014 | 69 | 338 | 0.0 | 0.0 | 0.00 | 0.15 | 0.00 | 96 | 1001.9 |
| 20260505070505 | 69 | 338 | 0.0 | 0.0 | 0.00 | 0.15 | 0.00 | 95 | 1002.0 |
| 20260505065954 | 69 | 338 | 0.0 | 0.0 | 0.00 | 0.15 | 0.00 | 96 | 1002.0 |
| 20260505065444 | 69 | 338 | 0.0 | 0.0 | 0.00 | 0.15 | 0.00 | 95 | 1002.0 |
| 20260505064934 | 69 | 338 | 0.0 | 0.0 | 0.00 | 0.15 | 0.00 | 95 | 1002.2 |
| 20260505064424 | 69 | 338 | 0.0 | 0.0 | 0.00 | 0.15 | 0.00 | 95 | 1002.0 |
| 20260505063913 | 69 | 338 | 0.0 | 0.0 | 0.00 | 0.15 | 0.00 | 95 | 1002.0 |
| 20260505063404 | 69 | 338 | 0.0 | 0.0 | 0.00 | 0.15 | 0.00 | 95 | 1002.1 |
| 20260505062854 | 69 | 338 | 0.0 | 0.0 | 0.00 | 0.15 | 0.00 | 95 | 1002.3 |
| 20260505062343 | 69 | 338 | 0.0 | 0.0 | 0.00 | 0.15 | 0.00 | 95 | 1001.9 |
| 20260505061834 | 69 | 338 | 0.0 | 0.0 | 0.00 | 0.15 | 0.00 | 95 | 1002.0 |
| 20260505061324 | 70 | 338 | 0.0 | 0.0 | 0.00 | 0.15 | 0.00 | 94 | 1002.1 |
| 20260505060813 | 70 | 338 | 0.0 | 0.0 | 0.00 | 0.15 | 0.00 | 95 | 1002.2 |
| 20260505060304 | 70 | 338 | 0.0 | 0.0 | 0.00 | 0.15 | 0.00 | 95 | 1002.1 |
| 20260505055753 | 70 | 338 | 0.0 | 0.0 | 0.00 | 0.15 | 0.00 | 94 | 1002.1 |
| 20260505055243 | 70 | 338 | 0.0 | 0.0 | 0.00 | 0.15 | 0.00 | 94 | 1002.0 |
| 20260505054733 | 70 | 338 | 0.0 | 0.0 | 0.00 | 0.15 | 0.00 | 94 | 1002.0 |
| 20260505054222 | 71 | 338 | 0.0 | 0.0 | 0.00 | 0.15 | 0.00 | 93 | 1002.2 |
| 20260505053712 | 71 | 338 | 0.0 | 0.0 | 0.00 | 0.15 | 0.00 | 93 | 1002.0 |
| 20260505052652 | 71 | 338 | 0.0 | 0.0 | 0.00 | 0.15 | 0.00 | 92 | 1002.1 |
| 20260505052142 | 71 | 338 | 0.0 | 0.0 | 0.00 | 0.15 | 0.00 | 92 | 1002.1 |
| 20260505051632 | 71 | 338 | 0.0 | 0.0 | 0.00 | 0.15 | 0.00 | 92 | 1002.2 |
| 20260505051122 | 71 | 0 | 0.0 | 0.0 | 0.00 | 0.15 | 0.00 | 92 | 1002.1 |
| 20260505050611 | 71 | 315 | 0.0 | 0.0 | 0.00 | 0.15 | 0.00 | 92 | 1002.1 |
| 20260505040921 | 72 | 23 | 0.0 | 0.0 | 0.00 | 0.15 | 0.00 | 91 | 1002.2 |
| 20260505040411 | 72 | 0 | 0.0 | 0.0 | 0.00 | 0.15 | 0.00 | 92 | 1002.3 |
| 20260505035901 | 72 | 0 | 0.0 | 0.0 | 0.00 | 0.15 | 0.00 | 91 | 1002.2 |
| 20260505035350 | 72 | 338 | 0.0 | 0.0 | 0.00 | 0.15 | 0.00 | 91 | 1002.3 |
| 20260505034841 | 72 | 0 | 0.0 | 0.0 | 0.00 | 0.15 | 0.00 | 92 | 1002.4 |
| 20260505034330 | 72 | 0 | 0.0 | 0.0 | 0.00 | 0.15 | 0.00 | 92 | 1002.3 |
| 20260505033820 | 72 | 0 | 0.0 | 0.0 | 0.00 | 0.15 | 0.00 | 92 | 1002.1 |
| 20260505033310 | 72 | 0 | 0.0 | 0.0 | 0.00 | 0.15 | 0.00 | 92 | 1002.3 |
| 20260505032759 | 72 | 23 | 0.0 | 0.0 | 0.00 | 0.15 | 0.00 | 93 | 1002.4 |
| 20260505032249 | 72 | 0 | 0.0 | 0.0 | 0.00 | 0.15 | 0.00 | 93 | 1002.2 |
| 20260505031740 | 72 | 0 | 0.0 | 0.0 | 0.00 | 0.15 | 0.00 | 93 | 1002.3 |
| 20260505030719 | 72 | 45 | 0.0 | 0.0 | 0.00 | 0.15 | 0.00 | 94 | 1002.3 |
| 20260505025659 | 71 | 0 | 0.0 | 0.0 | 0.00 | 0.15 | 0.15 | 95 | 1002.3 |
| 20260505025148 | 71 | 0 | 0.0 | 0.0 | 0.00 | 0.15 | 0.15 | 95 | 1002.1 |
| 20260505024129 | 71 | 23 | 0.0 | 0.0 | 0.00 | 0.15 | 0.15 | 96 | 1002.3 |
| 20260505023618 | 71 | 0 | 0.0 | 0.0 | 0.00 | 0.15 | 0.15 | 95 | 1002.2 |
| 20260505023108 | 71 | 0 | 0.0 | 0.0 | 0.00 | 0.15 | 0.15 | 95 | 1002.3 |
| 20260505022048 | 70 | 338 | 0.0 | 0.0 | 0.00 | 0.15 | 0.15 | 97 | 1002.2 |
| 20260505021539 | 70 | 23 | 0.0 | 0.0 | 0.00 | 0.15 | 0.15 | 98 | 1001.9 |
| 20260505021028 | 70 | 338 | 0.0 | 0.0 | 0.00 | 0.15 | 0.15 | 99 | 1002.2 |
| 20260505020519 | 70 | 180 | 0.0 | 0.0 | 0.00 | 0.15 | 0.15 | 99 | 1002.0 |
| 20260505020022 | 70 | 180 | 0.0 | 0.0 | 0.00 | 0.15 | 0.15 | 99 | 1002.0 |
| 20260505014948 | 70 | 180 | 0.0 | 0.0 | 0.00 | 0.15 | 0.15 | 99 | 1002.0 |
| 20260505014438 | 70 | 180 | 0.0 | 0.0 | 0.00 | 0.15 | 0.15 | 99 | 1002.0 |
| 20260505013927 | 69 | 180 | 0.0 | 0.0 | 0.00 | 0.15 | 0.15 | 99 | 1002.0 |
| 20260505013417 | 69 | 180 | 0.0 | 0.0 | 0.00 | 0.15 | 0.15 | 99 | 1001.8 |
| 20260505012907 | 67 | 180 | 0.0 | 0.0 | 0.00 | 0.15 | 0.15 | 99 | 1001.9 |
| 20260505012357 | 67 | 180 | 0.0 | 0.0 | 0.00 | 0.15 | 0.15 | 99 | 1001.8 |
| 20260505011847 | 67 | 180 | 0.0 | 0.0 | 0.00 | 0.15 | 0.15 | 99 | 1002.0 |
| 20260505010827 | 68 | 180 | 0.0 | 0.0 | 0.00 | 0.15 | 0.15 | 99 | 1001.9 |
| 20260505010316 | 68 | 180 | 0.0 | 0.0 | 0.00 | 0.15 | 0.15 | 99 | 1001.8 |
| 20260505005256 | 69 | 180 | 0.0 | 0.0 | 0.00 | 0.15 | 0.15 | 99 | 1001.8 |
| 20260505004236 | 68 | 180 | 0.0 | 0.0 | 0.00 | 0.15 | 0.15 | 99 | 1001.7 |
| 20260505003726 | 69 | 180 | 0.0 | 0.0 | 0.00 | 0.15 | 0.15 | 99 | 1001.8 |
| 20260505003216 | 69 | 180 | 0.0 | 0.0 | 0.00 | 0.15 | 0.15 | 99 | 1001.6 |
| 20260505002156 | 69 | 180 | 0.0 | 0.0 | 0.00 | 0.15 | 0.15 | 99 | 1001.6 |
| 20260505001646 | 69 | 180 | 0.0 | 0.0 | 0.00 | 0.15 | 0.15 | 99 | 1001.7 |
| 20260505000625 | 69 | 180 | 0.0 | 0.0 | 0.00 | 0.15 | 0.15 | 99 | 1001.7 |
| 20260505000116 | 69 | 180 | 0.0 | 0.0 | 0.00 | 0.15 | 0.15 | 99 | 1001.5 |
| 20260504235605 | 70 | 180 | 0.0 | 0.0 | 0.00 | 0.15 | 0.15 | 99 | 1001.6 |
| 20260504235055 | 70 | 180 | 0.0 | 0.0 | 0.00 | 0.15 | 0.15 | 99 | 1001.4 |
| 20260504234545 | 70 | 180 | 0.0 | 0.0 | 0.00 | 0.15 | 0.15 | 99 | 1001.5 |
| 20260504234035 | 71 | 180 | 0.0 | 0.0 | 0.00 | 0.15 | 0.15 | 99 | 1001.5 |
| 20260504233525 | 71 | 180 | 0.0 | 0.0 | 0.00 | 0.15 | 0.15 | 99 | 1001.3 |
| 20260504233015 | 71 | 180 | 0.0 | 0.0 | 0.00 | 0.15 | 0.15 | 99 | 1001.3 |
| 20260504232504 | 71 | 180 | 0.0 | 0.0 | 0.00 | 0.15 | 0.15 | 98 | 1001.3 |
| 20260504231954 | 71 | 180 | 0.0 | 0.0 | 0.00 | 0.15 | 0.15 | 98 | 1001.2 |
| 20260504231444 | 71 | 180 | 0.0 | 0.0 | 0.00 | 0.15 | 0.15 | 98 | 1001.1 |
| 20260504230934 | 71 | 180 | 0.0 | 0.0 | 0.00 | 0.15 | 0.15 | 98 | 1001.1 |
| 20260504230424 | 71 | 180 | 0.0 | 0.0 | 0.00 | 0.15 | 0.15 | 98 | 1001.2 |
| 20260504225913 | 71 | 180 | 0.0 | 0.0 | 0.00 | 0.15 | 0.15 | 98 | 1001.2 |
| 20260504225404 | 71 | 180 | 0.0 | 0.0 | 0.00 | 0.15 | 0.15 | 97 | 1001.0 |
| 20260504224853 | 72 | 180 | 0.0 | 0.0 | 0.00 | 0.15 | 0.15 | 97 | 1000.9 |
| 20260504224344 | 72 | 180 | 0.0 | 0.0 | 0.00 | 0.15 | 0.15 | 97 | 1001.0 |
| 20260504222813 | 73 | 180 | 0.0 | 0.0 | 0.00 | 0.15 | 0.15 | 96 | 1000.9 |
| 20260504222304 | 73 | 180 | 0.0 | 0.0 | 0.00 | 0.15 | 0.15 | 96 | 1000.8 |
| 20260504221753 | 74 | 180 | 0.0 | 0.0 | 0.00 | 0.15 | 0.15 | 95 | 1000.9 |
| 20260504221243 | 74 | 180 | 0.0 | 0.0 | 0.00 | 0.15 | 0.15 | 95 | 1000.7 |
| 20260504215202 | 74 | 180 | 0.0 | 0.0 | 0.00 | 0.15 | 0.15 | 95 | 1000.8 |
| 20260504214652 | 74 | 180 | 0.0 | 0.0 | 0.00 | 0.15 | 0.15 | 95 | 1000.7 |
| 20260504213632 | 75 | 180 | 0.0 | 0.0 | 0.00 | 0.15 | 0.15 | 94 | 1000.7 |
| 20260504213122 | 75 | 180 | 0.0 | 0.0 | 0.00 | 0.15 | 0.15 | 94 | 1000.7 |
| 20260504212101 | 76 | 180 | 0.0 | 0.0 | 0.00 | 0.15 | 0.15 | 92 | 1000.7 |
| 20260504211042 | 76 | 180 | 0.0 | 0.0 | 0.00 | 0.15 | 0.15 | 91 | 1000.5 |
| 20260504210538 | 76 | 180 | 0.0 | 0.0 | 0.00 | 0.15 | 0.15 | 91 | 1000.7 |
| 20260504210021 | 76 | 203 | 0.0 | 0.0 | 0.00 | 0.15 | 0.15 | 92 | 1000.6 |
| 20260504205511 | 77 | 203 | 0.0 | 0.0 | 0.00 | 0.15 | 0.15 | 91 | 1000.7 |
| 20260504205000 | 77 | 203 | 0.0 | 0.0 | 0.00 | 0.15 | 0.15 | 90 | 1000.4 |
| 20260504204451 | 78 | 203 | 0.0 | 0.0 | 0.00 | 0.15 | 0.15 | 89 | 1000.5 |
| 20260504203941 | 78 | 203 | 0.0 | 0.0 | 0.00 | 0.15 | 0.15 | 89 | 1000.5 |
| 20260504203431 | 79 | 23 | 0.0 | 0.0 | 0.00 | 0.15 | 0.15 | 86 | 1000.3 |
| 20260504202921 | 79 | 23 | 0.0 | 0.0 | 0.00 | 0.15 | 0.15 | 86 | 1000.4 |
| 20260504202410 | 79 | 23 | 0.0 | 0.0 | 0.00 | 0.15 | 0.15 | 85 | 1000.3 |
| 20260504201350 | 80 | 23 | 0.0 | 0.0 | 0.00 | 0.15 | 0.15 | 85 | 1000.1 |